Regional Weather Roundup
Issued by NWS

Home | Current Version | Previous Version | Text Only | Print | Product List | Glossary Off
Versions: 1 2 3 4 5 6 7 8 9 10 11 12 13 14 15 16 17 18 19 20 21 22 23 24 25 26 27 28 29 30 31 32 33 34 35 36 37 38 39 40 41 42 43 44 45 46 47 48 49 50

000
ASUS45 KBOU 241207
RWRCO

WEATHER ROUNDUP FOR COLORADO
NATIONAL WEATHER SERVICE DENVER/BOULDER CO
600 AM MDT MON JUL 24 2017

NOTE: "FAIR" INDICATES FEW OR NO CLOUDS BELOW 12000 FEET WITH NO
SIGNIFICANT WEATHER AND/OR OBSTRUCTIONS TO VISIBILITY.

COZ001>005-013-030-031-241300-
...NORTHWEST COLORADO...

CITY           SKY/WX    TMP DP  RH WIND       PRES   REMARKS
CRAIG          FAIR      47  43  86 W3        30.20R
HAYDEN         FAIR      55  37  50 E12       30.23R
MEEKER         FAIR      54  45  71 E3        30.22R
RABBIT EARS PA FAIR      54  36  50 W7        30.52R
STEAMBOAT SPGS FAIR      51  42  70 CALM      30.26R
WALDEN         FAIR      43  36  75 SE9       30.35S
$$

COZ006>008-011-241300-
...WEST CENTRAL VALLEYS...

CITY           SKY/WX    TMP DP  RH WIND       PRES   REMARKS
GRAND JUNCTION FAIR      70  48  45 SE14      30.09R
MONTROSE       FAIR      61  49  64 SE9       30.21R
EAGLE          FAIR      54  46  74 CALM      30.29R
RIFLE          FAIR      61  45  55 S3        30.17R
DELTA          FAIR      63  46  52 NE3       30.17S
NUCLA          FAIR      61  45  55 SE3       30.25S
$$

COZ017>023-064>068-241300-
...SOUTHWEST COLORADO...

CITY           SKY/WX    TMP DP  RH WIND       PRES   REMARKS
DURANGO        CLOUDY    60  52  74 NW5       30.29S
CORTEZ         FAIR      68  55  63 SW10      30.23R
PAGOSA SPRINGS CLOUDY    61  49  65 CALM      30.38R
TELLURIDE      FAIR      59  46  60 NE3       30.45F
WOLF CREEK PAS MOCLDY    43  43 100 S13       30.69S
$$

COZ009-010-012-014-032>034-037-058>063-241300-
...CENTRAL COLORADO...

CITY           SKY/WX    TMP DP  RH WIND       PRES   REMARKS
ASPEN          FAIR      52  43  71 CALM      30.32R
BUENA VISTA    FAIR      49  45  86 CALM      30.37S
COPPER MTN     FAIR      54  32  43 CALM      30.64S
BERTHOUD PASS  FAIR      43  30  61 NW20      30.66S
COTTONWOOD PAS FAIR      55  41  58 S5        30.49S
GUNNISON       FAIR      51  46  83 CALM      30.38R
KREMMLING      FAIR      52  45  76 SE3       30.34R
LEADVILLE      FAIR      41  37  86 CALM      30.48R
MONARCH PASS   FAIR      46  37  71 SW18      30.74R
SALIDA         FAIR      55  47  72 CALM      30.42S
SUNLIGHT       FAIR      50  36  57 S8        30.57R
WILKERSON PASS FAIR      46  41  81 SW8       30.60S
$$

COZ069>075-241300-
...SAN LUIS VALLEY/SANGRE DE CRISTO MOUNTAINS...

CITY           SKY/WX    TMP DP  RH WIND       PRES   REMARKS
ALAMOSA        FAIR      51  49  92 CALM      30.34R
DEL NORTE      FAIR      54  44  67 W5        30.38R
LA VETA PASS   NOT AVBL
SAGUACHE         N/A    N/A N/A N/A MISG        N/A
$$

COZ035-036-038>040-241300-
...NORTHERN COLORADO FRONT RANGE...

CITY           SKY/WX    TMP DP  RH WIND       PRES   REMARKS
DENVER INTL AP FAIR      70  52  52 S20       30.08S
DMNS CITY PARK   N/A     69  51  52 SE7       30.08S
AURORA         PTCLDY    69  54  58 S23G32    30.10S
FRONT RANGE AP FAIR      70  54  56 S15G21    30.10S
ERIE MUNI ARPT FAIR      58  51  77 CALM      30.07S
BOULDER MUN AP FAIR      61  46  59 S3        30.08R
CENTENNIAL     FAIR      68  52  56 S14       30.13R
BROOMFIELD     FAIR      68  46  45 NW6       30.11R
FORT COLLINS   FAIR      60  53  77 N7        30.07S
LONGMONT       FAIR      58  49  72 W3        30.09R
$$

COZ041-046-047-076>085-087-088-241300-
...PIKES PEAK/PALMER DIVIDE AND SOUTHERN FOOTHILLS...

CITY           SKY/WX    TMP DP  RH WIND       PRES   REMARKS
COLO. SPRINGS  FAIR      62  57  83 E8        30.22F
A. F. ACADEMY  FAIR      54  52  94 N6        30.23F
SCHRIEVER AFB  FAIR      60  54  79 E7        30.22S
CHEYENNE MTN   FAIR      62  51  66 NW3       30.21S
ELLICOTT       FAIR     N/A N/A N/A S9        30.20S
FALCON           N/A     58  55  87 S5        30.27F
FORT CARSON    FAIR      59  55  88 NW9       30.18F
LIMON          FAIR      60  59  96 SE6       30.15F
MONUMENT HILL  FAIR      59  54  82 S17G23    30.25F
CANON CITY     CLEAR     61  55  82 W7        30.16S
WALSENBURG     FAIR      57  50  77 SW6       30.21S
TRINIDAD       FAIR      62  50  64 SW12      30.19F
$$

COZ042>045-048>051-090-091-241300-
...NORTHEAST COLORADO...

CITY           SKY/WX    TMP DP  RH WIND       PRES   REMARKS
GREELEY ARPT   FAIR      62  57  83 E7        30.05S
AKRON          FAIR      69  59  70 S14       30.08F
BURLINGTON     FAIR      65  61  87 SW9       30.10S
WRAY           NOT AVBL
YUMA           FAIR      63  54  72 S6        30.07S
STERLING       FAIR      64  61  88 S7        30.02S
HOLYOKE        FAIR      61  57  88 SW5       30.05S
FORT MORGAN    FAIR      68  58  69 S12       30.06S
$$

COZ086-089-092>099-241300-
...SOUTHEAST COLORADO...

CITY           SKY/WX    TMP DP  RH WIND       PRES   REMARKS
PUEBLO         FAIR      61  53  75 N7        30.12R
LA JUNTA       FAIR      66  59  78 SE3       30.10S
LAMAR          FAIR      68  62  81 CALM      30.07S
SPRINGFIELD      N/A     61  60  97 SW6       30.13R
$$



USA.gov is the U.S. government's official web portal to all federal, state and local government web resources and services.